GFSSGP_925_rhum_096.txt.gz
RH
18 14 21 16 18 15 14 10 8 9 8 10 10 12 12 11 14 25 36 47 46 48 63 71 67 66 82 86 89 94 95 89 83 80 82 86 71 69 70 83 87 86 91 95 96 98 97 85 78
22 17 14 14 21 16 11 9 10 8 9 10 10 12 12 14 11 19 43 48 46 44 60 76 72 68 79 85 88 92 90 85 79 82 84 87 78 71 78 87 87 88 89 93 94 97 98 79 77
26 20 14 19 18 15 11 8 9 8 8 9 10 9 13 14 13 20 41 41 42 45 52 66 79 74 68 81 86 84 85 80 85 83 81 81 76 75 83 88 87 86 87 90 92 99 86 73 70
19 14 14 18 13 9 8 8 8 9 8 9 10 11 10 12 15 25 40 42 47 44 48 66 74 81 71 72 74 74 68 79 79 83 79 83 81 84 85 87 84 87 88 90 95 98 73 69 61
15 14 18 16 12 9 6 8 8 10 9 9 10 15 15 11 21 32 36 45 56 58 53 67 76 84 78 80 79 85 82 80 81 85 71 82 83 74 84 85 82 84 88 91 98 73 70 62 67
14 13 16 14 10 7 6 8 8 10 9 9 10 13 14 20 24 34 47 54 64 71 69 70 84 88 90 84 85 79 74 77 80 89 91 84 78 76 83 83 84 87 92 90 75 66 70 57 69
15 15 16 13 11 9 7 7 10 10 10 9 9 13 13 24 39 47 49 57 73 79 80 85 94 86 84 89 84 79 73 60 69 65 100 91 86 85 82 80 84 89 87 78 71 67 66 52 55
12 14 16 14 11 10 7 6 8 8 9 8 8 13 16 35 47 51 51 56 70 76 80 85 88 88 93 92 95 82 56 49 55 61 90 82 84 83 80 82 82 83 76 73 51 54 61 53 54
11 16 17 13 10 9 7 8 7 7 8 9 8 10 12 25 40 43 45 54 62 76 78 83 84 83 94 99 91 76 69 62 70 76 90 85 91 83 83 81 77 72 74 44 40 46 50 46 46
14 18 15 10 8 8 8 7 8 8 8 9 9 11 13 17 29 35 39 46 56 70 83 83 83 86 87 98 92 82 81 92 96 91 84 90 97 93 95 84 64 59 42 32 35 38 42 35 50
13 16 13 10 9 8 8 8 7 8 9 9 10 11 11 16 26 32 38 41 45 70 82 83 76 86 88 95 90 87 86 99 100 95 92 92 95 96 98 93 72 60 34 40 38 41 47 42 53
14 11 10 10 8 8 9 7 9 8 9 8 9 10 15 19 24 30 38 40 43 64 82 86 85 80 88 93 98 99 89 96 91 75 94 98 95 100 97 94 70 53 58 50 36 52 50 44 50
13 11 10 9 8 10 9 10 9 9 7 7 8 11 18 20 23 34 42 45 52 53 77 91 91 88 92 90 97 98 93 90 84 86 96 93 94 100 100 93 72 55 63 51 50 58 48 50 49
12 11 11 10 10 11 12 11 10 9 7 7 9 14 19 22 25 36 51 48 59 54 70 90 95 93 94 97 95 98 89 88 99 100 98 86 92 95 92 85 69 67 62 55 56 56 52 51 52
15 16 14 13 12 12 11 13 12 9 8 8 10 14 20 19 27 32 48 47 48 64 85 97 93 95 91 95 93 94 96 84 98 100 98 87 86 85 83 78 67 66 60 54 56 56 54 50 51
17 18 22 15 13 12 12 16 11 9 8 9 14 16 21 22 24 31 45 47 52 71 91 99 98 99 97 99 93 91 98 94 91 90 88 80 77 73 76 72 64 62 60 53 60 57 51 48 49
22 26 23 19 12 12 12 13 10 10 12 14 14 15 20 23 26 35 49 45 56 75 88 98 99 99 94 94 95 92 94 100 96 90 82 81 70 67 69 66 59 58 60 58 58 55 49 46 47
27 24 22 21 15 13 13 13 11 9 13 15 14 14 15 22 25 38 42 52 66 80 89 97 97 99 95 94 94 96 99 97 100 92 91 86 76 63 61 60 60 60 60 60 58 52 47 44 45
20 20 21 16 13 14 14 14 12 11 10 11 11 14 14 20 25 42 44 56 68 86 95 98 98 99 99 100 100 100 100 100 100 100 90 94 81 67 59 58 64 64 59 58 52 48 48 45 43
18 21 22 19 15 16 16 15 14 13 12 10 9 11 14 19 38 44 50 59 70 86 91 98 97 98 99 98 99 100 99 100 100 100 100 91 81 68 60 57 60 59 58 55 54 50 52 52 48
20 23 25 26 20 18 18 18 17 14 12 11 10 10 11 18 36 44 52 57 70 84 90 90 91 95 98 94 98 100 99 100 100 100 100 90 76 69 62 58 59 65 59 54 55 54 56 62 60
19 17 20 25 30 31 20 28 19 15 12 11 10 11 14 13 33 41 47 58 71 82 88 85 84 91 95 95 97 95 97 97 99 98 95 83 74 74 72 72 66 61 57 61 61 65 68 64 61
18 15 18 25 34 32 28 28 21 15 14 12 13 14 15 16 32 40 43 51 65 77 86 83 85 90 94 93 92 90 88 91 96 96 97 91 88 84 86 67 60 69 65 64 71 76 68 62 68
13 17 21 24 28 43 35 33 25 18 15 12 10 12 13 16 30 34 38 44 60 72 84 83 85 91 92 91 91 86 81 90 89 88 85 87 91 89 82 67 71 71 69 74 61 68 63 63 66
15 22 39 48 52 64 32 31 25 18 14 11 14 15 16 20 30 34 38 42 53 73 73 87 88 86 94 87 91 85 85 90 88 88 82 83 83 88 81 67 68 73 74 66 65 69 59 69 68
17 23 38 47 59 44 39 39 24 16 13 11 10 11 18 22 31 32 36 39 49 70 73 73 81 83 91 90 90 88 86 86 86 86 84 88 81 76 73 66 62 63 72 82 73 69 69 75 75
19 28 22 33 32 71 50 36 25 15 15 14 13 13 19 23 29 30 36 40 45 62 72 74 77 80 84 89 89 87 86 82 81 87 84 87 82 77 68 65 65 62 67 71 65 71 72 74 69
18 17 31 31 46 49 37 48 36 23 19 16 14 14 19 22 28 30 32 41 41 56 64 72 68 76 84 87 87 86 86 86 82 80 78 80 80 77 74 62 57 54 71 71 70 66 69 76 73
15 17 17 19 27 38 46 42 35 34 26 22 20 17 17 18 25 29 30 37 38 49 56 67 65 63 74 84 87 86 86 85 81 79 77 73 72 73 71 68 70 69 64 59 67 70 73 72 70
26 18 19 29 31 27 33 34 33 26 23 22 19 17 17 18 22 26 29 37 38 44 50 61 61 58 65 73 82 84 88 86 82 78 76 73 74 69 65 62 67 67 67 67 73 72 75 78 77

GFSSGP_925_rhum_099.txt.gz
RH
15 19 16 24 33 32 29 21 12 12 17 14 14 15 15 14 15 32 46 45 62 65 68 68 67 73 76 75 76 59 57 57 62 60 54 62 65 62 56 55 66 83 89 92 96 100 100 81 77
16 20 24 26 34 40 31 15 13 14 14 13 12 12 14 16 42 56 55 46 53 60 66 72 69 67 76 80 83 80 68 56 63 59 54 60 64 62 63 69 80 86 92 95 95 100 94 80 78
13 24 26 32 38 37 29 12 12 11 11 11 11 11 16 15 33 48 44 45 45 55 63 75 74 71 74 83 82 85 91 84 67 62 69 72 72 64 71 75 80 84 92 96 93 99 77 75 73
25 28 23 29 32 24 20 12 12 11 10 11 12 13 12 13 20 42 41 43 44 46 49 65 73 77 71 79 88 89 90 84 79 74 71 80 79 83 82 80 84 85 88 90 93 88 75 72 64
22 27 31 32 28 19 14 10 11 11 10 12 13 17 17 25 39 41 44 46 51 57 59 64 69 74 77 78 82 79 78 81 86 87 87 77 68 85 86 83 84 83 85 94 98 72 66 63 68
28 25 30 32 22 15 11 10 11 12 11 11 12 15 21 33 34 42 44 54 62 68 71 75 77 80 81 81 86 85 81 77 81 73 86 94 83 88 86 82 81 86 84 86 76 64 58 66 70
28 29 30 26 21 16 12 12 14 12 11 12 11 14 30 51 43 44 52 60 65 61 76 90 92 90 91 86 91 89 83 80 77 76 80 72 80 92 85 80 82 88 84 82 66 60 64 69 69
23 24 26 23 21 19 12 10 11 11 11 10 9 15 19 57 48 50 57 61 65 69 75 73 83 87 90 93 100 92 83 78 70 73 64 62 63 98 81 81 82 83 87 80 68 60 69 66 58
16 26 26 24 20 16 10 10 9 9 10 9 10 13 24 51 51 52 57 70 72 71 75 79 82 82 92 96 96 95 87 85 76 73 66 67 79 98 84 85 82 83 82 76 69 41 61 54 49
21 29 24 18 16 14 12 10 10 9 10 10 11 19 45 51 47 54 60 70 77 76 75 68 76 82 94 99 99 97 79 68 67 71 65 69 85 76 88 88 80 82 84 66 46 44 50 50 47
20 23 19 17 14 14 13 12 9 11 12 11 12 12 20 44 47 50 49 54 70 77 77 69 77 84 90 90 93 91 92 88 84 70 87 74 95 100 98 93 91 80 58 45 57 49 48 49 47
21 17 16 15 14 13 12 12 13 11 12 10 10 11 17 24 40 48 46 52 69 83 80 75 78 86 89 90 88 88 89 95 97 94 95 83 94 100 100 98 85 63 47 45 49 42 38 50 49
20 18 15 13 12 12 11 14 15 13 11 10 10 10 21 22 32 41 46 50 66 83 86 85 85 87 88 88 90 94 94 99 99 99 96 94 100 100 100 91 78 49 37 38 43 39 50 50 53
18 17 16 15 16 14 14 16 15 13 11 11 12 13 21 26 33 59 52 56 57 80 89 90 87 92 91 93 89 97 98 95 98 96 82 99 100 100 100 83 70 51 30 39 52 38 47 49 54
20 24 21 18 18 17 16 18 16 13 12 12 12 14 24 25 38 61 54 56 60 81 89 85 84 85 92 93 99 100 88 84 99 94 85 96 100 99 96 66 60 41 32 54 61 48 47 48 53
28 26 29 20 18 17 17 22 15 14 13 13 13 17 22 26 40 58 50 55 68 76 74 83 82 90 95 96 94 100 95 98 100 100 89 100 99 98 85 60 66 47 40 58 60 53 51 54 52
32 39 34 26 19 19 19 21 15 13 14 16 18 19 23 31 50 53 49 63 71 75 80 86 85 93 96 100 92 99 99 97 97 100 99 100 97 92 81 63 67 55 47 59 58 54 52 51 52
44 37 30 29 21 18 21 20 16 11 13 18 20 20 24 33 54 54 59 68 74 82 82 82 97 94 95 97 95 98 100 94 98 100 97 94 88 84 76 59 68 60 59 59 57 54 49 50 50
29 30 30 25 19 19 22 21 17 14 14 18 23 21 21 31 53 58 74 76 79 82 86 86 96 100 95 94 99 97 100 100 95 98 97 88 82 75 71 61 70 61 62 62 57 51 50 52 48
27 29 27 21 19 20 25 27 21 16 15 16 16 16 21 54 55 63 78 86 80 86 86 93 94 95 96 99 98 99 100 99 98 99 93 88 78 75 68 68 70 68 63 59 56 51 50 48 49
18 24 26 25 22 22 31 33 25 18 15 15 14 15 24 55 59 67 72 88 85 87 93 87 95 94 100 99 96 100 100 100 100 100 100 94 88 78 70 65 66 66 60 57 50 47 48 48 44
21 15 18 20 27 44 29 52 34 23 20 17 15 14 20 54 54 65 72 87 89 86 87 86 92 93 96 100 96 99 99 98 100 100 100 100 93 74 70 70 70 68 59 54 49 48 46 43 49
18 18 18 19 28 39 40 47 39 27 26 18 17 16 17 50 55 66 69 80 86 82 82 88 95 94 92 96 100 99 100 100 100 100 100 100 87 81 74 65 62 66 62 65 55 50 50 51 53
17 20 24 23 34 53 45 43 44 35 26 18 15 15 18 48 52 61 64 77 86 82 84 89 94 95 93 95 95 97 98 100 100 100 100 100 98 85 71 67 68 64 61 63 56 60 62 65 66
20 24 51 61 58 56 33 39 38 29 22 19 18 20 24 46 52 56 69 74 86 90 86 90 90 99 93 95 89 88 88 93 96 98 99 100 99 95 79 66 68 68 64 64 70 72 65 66 61
26 26 59 63 73 63 36 60 46 26 20 17 15 20 38 46 49 51 65 71 82 87 84 83 88 95 96 97 92 85 87 91 92 93 93 87 79 77 80 72 69 60 66 67 66 71 68 68 62
27 32 25 38 42 72 63 45 41 34 26 25 18 20 37 42 46 49 55 65 78 81 88 80 80 87 91 96 93 89 89 90 88 83 79 77 80 82 90 73 68 68 70 68 68 69 67 68 58
23 22 33 36 50 60 48 54 64 46 34 32 29 21 31 40 42 46 49 62 77 78 78 82 82 80 87 88 95 91 91 88 88 85 81 80 77 78 83 82 73 69 66 64 70 67 66 71 66
29 28 25 32 43 56 57 49 50 46 41 39 30 21 32 36 38 44 46 50 72 77 79 79 81 82 85 82 92 90 92 87 88 89 86 86 85 79 78 77 75 66 59 60 66 67 63 72 70
22 23 23 39 36 42 42 40 32 39 37 34 38 37 20 22 36 40 44 46 62 70 78 79 80 84 88 85 85 83 89 89 88 90 86 85 86 82 77 72 70 68 66 60 65 66 74 75 73

GFSSGP_925_rhum_105.txt.gz
RH
34 26 22 26 33 39 36 29 20 17 17 15 15 16 16 16 16 24 38 44 52 51 61 72 68 59 58 60 67 70 60 57 57 59 72 78 75 72 74 84 88 84 92 98 96 86 94 98 91
23 24 25 35 40 41 33 28 23 20 16 15 16 17 18 27 46 52 57 51 50 49 57 66 69 64 56 55 56 65 70 67 64 65 59 73 73 74 78 90 89 90 93 94 96 89 92 98 92
22 30 38 37 49 44 32 22 16 14 14 15 13 12 25 30 47 57 44 44 54 51 51 64 69 69 68 56 56 59 63 67 69 70 71 74 81 84 90 83 86 91 90 85 82 84 97 94 89
24 36 36 37 41 38 30 24 21 16 12 15 12 13 17 37 43 43 43 41 48 57 62 69 71 73 80 80 69 66 62 69 84 91 88 84 84 74 80 88 89 90 85 81 83 93 96 93 91
23 36 39 40 39 30 25 22 20 16 13 15 15 15 19 42 42 42 44 43 52 58 65 70 71 73 77 83 85 96 79 70 74 83 83 87 80 78 80 84 82 79 82 79 88 96 93 91 91
32 36 42 45 36 26 22 19 19 18 16 13 16 20 28 42 46 46 45 48 52 59 71 74 77 80 79 84 87 87 96 89 88 79 77 73 70 59 87 84 84 83 84 85 91 91 88 84 84
34 39 40 35 32 26 20 16 15 15 13 13 15 29 43 55 54 53 50 53 61 65 72 77 83 85 87 89 88 91 90 85 87 82 77 70 66 76 67 75 85 84 80 84 89 89 86 80 77
34 36 35 34 31 28 18 15 12 13 13 12 15 38 46 53 52 56 59 59 61 65 67 78 84 84 88 92 95 94 92 84 93 90 84 70 69 66 73 63 74 84 80 85 89 88 85 78 74
27 40 46 34 28 24 18 19 16 12 12 11 11 28 28 43 56 67 71 73 74 73 72 72 78 81 89 92 92 96 94 81 83 90 85 78 74 80 62 52 61 87 81 85 85 83 81 76 70
34 43 37 30 22 22 20 20 20 14 16 12 11 46 57 64 73 79 87 88 80 74 74 69 78 77 89 86 88 92 98 94 86 95 92 87 84 82 71 61 62 89 80 84 80 83 80 67 63
31 35 26 24 22 22 23 22 19 16 19 16 13 24 68 72 77 74 77 78 76 64 72 73 79 78 80 87 91 98 94 100 100 100 95 96 80 85 63 69 66 87 81 84 79 82 72 58 71
32 28 24 24 21 22 23 20 20 18 16 14 14 27 69 72 74 74 72 75 69 74 73 78 82 83 82 89 95 95 99 100 99 99 98 95 81 80 70 69 95 87 80 75 76 78 61 63 70
35 29 27 25 24 23 21 22 20 18 15 15 16 19 68 65 66 64 63 66 67 78 78 86 83 84 86 97 99 98 97 100 100 100 98 87 81 68 85 100 99 91 76 71 77 75 61 69 72
28 29 28 27 27 25 23 21 22 19 17 17 18 19 48 62 62 65 66 66 68 79 79 86 83 84 92 98 98 99 100 98 100 100 98 93 88 94 85 98 100 83 76 68 74 75 60 65 66
28 33 31 30 26 27 23 28 25 19 17 19 19 19 19 41 56 60 56 60 64 79 82 87 82 87 90 90 97 100 100 100 99 90 91 95 93 89 96 93 98 96 73 65 67 73 60 64 70
32 33 41 28 27 23 24 28 22 20 19 20 21 19 18 22 35 47 51 57 73 79 85 85 88 89 89 92 99 100 99 98 100 100 99 100 98 88 99 100 100 94 72 63 64 67 62 65 68
40 44 42 35 26 24 26 30 23 22 21 22 23 21 18 22 39 52 58 67 78 77 82 89 90 87 89 93 100 99 95 99 96 95 100 100 100 100 100 100 99 91 60 64 62 60 58 67 67
42 50 42 40 29 28 32 30 27 24 22 26 25 22 24 30 38 66 74 79 85 82 84 86 87 90 91 94 93 99 100 99 94 100 100 99 100 100 100 100 94 75 50 64 62 56 58 61 64
32 41 44 34 29 28 32 31 27 24 24 31 28 25 24 31 68 75 87 90 93 89 90 85 91 92 95 99 98 100 99 98 100 100 99 100 100 99 99 92 84 49 54 60 53 56 58 63 66
41 42 43 37 30 30 32 31 24 26 28 28 25 27 24 56 78 87 97 97 97 98 90 89 90 95 95 94 100 99 93 99 97 100 99 98 99 99 91 80 62 46 58 66 54 54 62 64 61
25 35 39 41 31 29 30 30 25 24 30 28 29 27 23 55 78 83 94 97 99 100 95 91 92 93 90 85 88 95 97 96 100 100 100 100 100 92 83 67 51 48 62 67 57 51 56 65 61
23 20 22 27 34 41 30 37 32 31 27 27 28 28 28 52 64 75 87 97 99 100 91 90 94 94 86 85 88 94 99 98 98 98 100 100 98 92 75 57 50 59 69 69 53 51 54 57 64
22 19 22 23 27 28 26 52 34 32 36 31 24 28 27 51 65 74 83 89 98 99 98 95 92 94 85 87 85 99 99 96 99 99 100 100 100 97 80 65 61 70 74 68 60 58 55 54 60
20 22 23 26 34 46 31 40 34 37 33 32 27 26 24 40 66 69 81 91 100 99 100 99 99 99 94 92 88 94 99 100 100 100 100 100 100 100 96 89 70 67 69 68 63 58 54 52 53
26 36 49 58 70 50 36 50 33 32 28 31 39 35 28 35 71 75 93 96 98 100 100 100 100 98 100 98 92 96 99 100 99 100 100 98 100 100 100 93 82 74 64 70 68 64 58 54 52
31 35 57 53 65 55 42 56 40 32 35 39 39 38 40 41 50 72 88 89 95 98 100 99 100 98 100 99 93 95 98 99 100 100 100 100 100 100 98 100 96 91 82 76 78 77 74 65 62
26 41 26 38 54 65 57 49 37 41 42 45 49 46 44 69 76 81 87 89 92 95 99 98 100 100 100 99 95 90 89 100 100 100 99 100 100 100 100 98 96 93 94 99 88 83 79 80 87
24 25 35 50 50 57 54 54 49 43 46 47 51 53 53 44 68 77 90 91 90 91 96 99 100 100 100 99 96 95 92 91 98 99 100 100 99 99 100 100 100 99 100 100 96 98 99 90 85
29 33 38 35 52 47 55 55 44 42 53 49 50 58 58 61 67 73 80 86 89 92 95 99 100 100 98 98 96 94 98 96 93 99 99 99 100 100 100 100 99 99 98 95 93 98 95 91 87
48 31 30 54 56 58 56 52 62 53 59 65 68 67 61 54 60 80 76 89 92 94 93 98 99 98 97 96 94 93 91 93 97 99 99 99 100 99 100 100 99 96 91 92 95 92 94 92 88

GFSSGP_925_rhum_111.txt.gz
RH
34 26 22 24 22 27 23 20 20 18 18 16 15 16 16 15 27 19 26 39 24 23 31 46 54 99 92 76 66 60 59 72 73 74 71 79 88 87 89 82 80 83 86 95 90 81 90 94 86
35 26 24 26 24 21 16 22 22 18 16 16 16 17 16 14 28 34 35 31 22 23 33 41 49 94 97 82 69 63 60 70 73 78 74 71 72 77 80 81 82 81 86 94 94 93 98 92 88
26 30 23 25 30 17 16 21 17 17 17 15 14 14 16 16 34 34 22 22 25 29 31 40 49 98 97 86 75 70 92 96 76 72 75 91 90 89 82 82 81 84 89 89 96 94 93 89 87
31 28 26 23 22 26 23 18 18 20 16 14 13 14 16 22 34 33 20 25 35 36 38 45 53 86 98 88 80 84 98 100 82 75 78 77 82 82 83 82 80 75 88 92 94 92 90 86 84
26 28 25 28 24 24 24 22 22 19 17 16 13 15 17 26 31 34 26 30 38 45 45 50 56 70 98 98 85 88 94 99 71 67 71 71 77 74 76 77 72 71 82 94 94 87 89 85 85
26 28 27 18 20 25 22 20 19 18 17 16 15 17 15 30 38 38 37 38 42 48 50 55 62 70 96 94 98 85 83 75 70 73 72 70 64 81 73 72 76 76 76 87 90 88 89 88 88
25 28 24 28 26 24 20 18 18 16 16 15 16 16 18 29 43 45 46 46 48 51 55 61 65 76 87 96 98 95 86 72 74 72 75 77 79 73 72 74 72 75 65 81 92 84 93 93 91
23 25 33 29 18 16 18 16 14 15 15 12 18 19 18 29 50 55 58 59 58 59 66 64 69 74 84 95 95 95 89 83 77 75 75 71 65 59 60 50 51 47 83 82 84 86 92 96 93
28 26 26 18 25 15 18 18 17 16 14 15 13 15 22 43 51 72 77 81 77 77 73 69 75 80 84 94 95 97 95 88 84 80 74 66 64 63 62 63 54 61 79 81 78 88 86 95 93
27 27 22 21 21 18 18 19 18 16 17 16 16 16 34 56 68 60 64 65 82 91 79 77 81 84 87 98 98 98 99 95 89 85 76 74 70 62 62 66 65 54 78 84 81 85 90 94 96
30 26 25 23 21 20 19 20 18 18 18 17 16 16 18 42 55 63 57 59 64 77 83 77 80 86 89 97 99 99 98 96 98 88 82 89 75 66 62 67 68 74 89 90 92 90 90 94 89
34 32 24 19 22 22 22 21 19 19 16 14 16 18 17 21 36 51 57 58 67 77 81 68 74 83 85 91 99 97 98 99 100 99 87 85 88 92 91 74 70 81 88 97 99 88 82 83 89
35 30 26 24 24 23 22 22 22 21 17 18 18 18 17 19 31 48 54 57 69 75 77 65 65 83 83 89 99 99 98 99 100 100 100 96 96 99 99 88 75 97 86 87 99 86 76 86 80
24 27 24 23 22 25 24 22 23 20 20 20 21 18 17 20 22 33 54 59 70 71 74 63 67 79 96 98 99 98 98 99 99 99 100 99 100 97 100 96 100 100 95 93 91 89 74 87 88
29 31 28 29 26 26 26 28 29 21 21 21 20 19 18 18 18 29 33 44 50 68 74 65 70 83 92 90 99 99 96 94 93 100 99 100 97 99 99 97 100 100 99 92 92 90 75 86 86
27 29 35 29 30 27 24 28 23 20 22 20 22 21 20 19 19 19 24 29 38 60 77 84 76 83 88 96 100 98 98 98 95 98 99 100 99 96 97 95 99 100 98 98 92 89 86 87 83
29 26 35 33 29 27 28 26 21 20 22 22 22 20 20 20 19 20 20 23 35 60 79 90 86 89 91 98 99 98 97 97 99 100 99 100 99 100 100 98 99 100 99 98 88 87 84 87 85
27 31 37 31 27 29 28 29 24 22 23 23 22 21 21 19 18 18 33 38 46 70 82 85 88 91 92 96 99 98 99 95 99 99 100 100 100 100 100 100 100 95 100 98 87 84 83 81 83
22 31 32 31 29 30 30 29 26 25 24 25 22 21 19 18 17 26 60 71 79 87 90 92 98 98 97 100 100 100 100 96 100 100 100 100 100 100 100 100 100 100 100 93 85 84 86 90 84
25 25 24 23 27 28 27 27 22 22 23 22 21 19 18 18 19 23 51 90 98 95 94 99 99 98 100 100 98 97 99 99 94 99 100 99 98 100 99 100 100 98 100 95 89 82 82 85 88
25 27 25 24 25 30 33 26 17 13 19 18 19 19 18 23 24 24 32 70 94 96 98 100 100 99 99 98 98 87 98 100 100 100 99 99 96 100 100 100 100 99 99 92 87 83 75 79 86
26 22 24 26 32 29 25 20 18 16 15 23 21 30 38 42 38 30 27 55 84 96 98 99 100 100 100 98 98 92 95 92 99 100 99 98 99 100 100 100 100 100 99 90 86 82 72 77 81
29 23 25 26 30 30 23 26 19 23 23 22 42 46 48 54 52 38 29 43 71 90 97 100 100 100 100 100 99 96 96 96 87 86 95 99 100 100 100 99 100 100 100 90 84 81 75 75 74
22 23 24 28 28 32 23 23 22 19 19 43 48 50 52 52 57 59 50 61 74 91 99 100 96 100 100 100 100 100 93 94 95 90 98 100 100 100 100 100 100 100 100 92 83 77 75 72 70
24 26 34 41 43 38 29 28 20 23 33 45 53 55 56 53 58 63 65 75 80 95 96 98 97 100 100 100 100 97 97 99 95 97 100 100 100 100 100 100 100 99 94 85 80 74 74 71 70
30 29 35 37 42 32 31 34 25 23 25 48 54 54 53 54 62 68 69 75 82 91 94 96 96 100 100 100 98 95 98 99 100 100 100 100 100 100 100 100 98 93 83 75 73 77 73 71 65
40 39 27 38 49 47 40 34 34 39 52 54 59 57 59 63 73 72 72 78 79 86 94 97 98 97 100 98 96 88 91 97 99 100 100 100 100 100 100 99 98 90 73 69 68 72 70 63 62
32 31 45 41 44 48 40 45 31 53 61 59 64 62 60 67 75 78 78 80 82 88 94 96 93 93 98 98 88 89 86 98 100 99 100 100 100 100 100 98 90 74 68 65 65 71 70 62 62
22 36 35 34 40 35 35 34 41 43 53 62 65 61 61 66 72 79 85 90 92 94 98 97 93 93 97 99 92 91 90 97 100 100 100 100 100 100 100 100 93 84 75 80 79 71 70 67 66
25 23 31 39 44 40 34 34 60 61 60 60 68 60 58 53 62 68 77 89 95 96 96 99 98 99 97 96 98 95 90 92 98 99 100 100 100 100 100 100 100 100 94 82 89 88 76 84 80

GFSSGP_925_rhum_114.txt.gz
RH
33 28 20 17 14 11 8 10 12 12 13 12 11 16 13 11 13 13 24 36 36 38 54 36 48 58 86 75 68 63 63 74 84 80 76 74 88 88 82 83 85 84 88 93 91 88 96 91 80
38 23 17 14 11 9 7 8 13 11 12 13 12 13 12 11 12 16 27 36 36 40 54 65 50 57 72 75 68 64 65 75 95 82 78 74 92 90 88 82 80 83 82 89 94 94 94 84 85
28 21 13 10 9 8 6 10 11 12 13 12 12 11 10 10 13 14 17 35 37 42 49 68 47 52 67 74 69 67 94 93 97 87 78 73 83 82 76 86 81 82 81 85 92 96 91 87 86
18 14 12 12 9 8 8 9 12 13 12 10 10 12 10 13 15 20 23 34 40 45 51 72 44 48 76 77 70 74 99 98 94 79 79 81 81 79 77 80 81 82 82 76 80 95 89 88 85
17 13 11 11 8 6 10 12 14 13 13 12 10 11 11 15 22 29 28 36 42 50 59 57 47 56 84 79 73 78 99 99 86 75 76 75 82 74 83 73 84 80 77 83 84 88 88 84 86
12 12 12 8 7 8 9 8 11 11 11 11 12 11 11 18 23 31 36 42 50 62 72 84 58 69 91 89 78 81 82 83 77 71 76 78 69 49 56 62 73 72 75 82 84 84 87 82 84
15 12 10 8 8 10 9 8 11 11 11 11 10 13 11 17 32 48 46 52 61 70 75 83 91 94 92 94 88 84 78 72 75 76 78 78 62 70 72 72 67 76 75 83 82 81 79 81 82
14 13 14 10 10 8 7 10 9 11 11 10 11 12 14 19 38 47 54 56 61 68 74 78 84 93 98 99 96 89 77 74 79 79 75 73 68 63 81 73 70 65 65 75 71 84 71 79 88
15 16 14 11 10 8 10 10 11 11 11 11 10 12 13 20 34 38 50 58 61 67 69 74 79 85 94 98 99 95 87 83 77 80 75 70 79 89 80 77 73 62 70 80 77 75 72 81 88
18 17 14 9 9 9 9 10 9 12 11 11 11 12 12 16 22 26 34 43 57 62 69 70 78 81 98 98 99 100 97 95 91 91 90 80 84 80 72 70 61 71 75 73 61 69 75 85 96
19 20 14 12 11 10 10 10 8 11 10 10 12 11 11 12 16 22 23 30 38 50 65 71 77 86 100 99 99 96 100 98 94 91 92 82 84 74 71 72 82 78 85 95 89 72 89 87 86
24 17 17 14 13 15 14 11 12 11 10 8 10 11 12 13 13 15 18 22 29 41 60 72 74 81 99 99 100 98 95 97 97 94 94 90 89 81 72 68 72 84 85 96 96 90 86 83 75
24 20 16 17 16 15 14 15 14 13 10 10 10 12 13 12 12 14 18 21 26 38 52 66 73 78 98 99 98 100 97 98 99 97 91 93 86 81 72 69 69 82 83 85 96 92 89 80 76
16 18 18 17 16 15 16 17 15 13 12 13 13 13 11 12 12 12 14 23 29 36 47 60 71 76 93 100 100 99 100 98 100 99 99 100 89 83 78 76 84 86 87 93 96 92 87 80 73
18 21 18 17 17 18 16 20 19 14 14 14 13 14 13 12 11 12 14 16 23 30 43 56 69 75 88 87 94 99 100 100 98 99 99 100 93 82 85 86 84 80 100 97 99 94 81 73 71
22 20 25 17 18 18 17 22 16 15 16 17 17 16 15 14 12 12 13 14 16 18 29 50 63 77 92 88 91 93 100 100 99 98 98 98 99 89 82 90 88 98 99 100 97 88 76 67 65
17 20 16 16 19 19 22 21 15 15 15 15 15 15 14 14 13 13 13 14 15 18 26 49 65 77 92 87 93 100 100 100 99 98 98 99 99 99 99 91 96 97 99 94 96 83 71 65 62
16 16 17 17 12 16 20 20 17 16 17 17 16 16 15 15 13 12 12 14 22 28 34 50 66 76 96 98 100 99 100 100 99 98 98 98 99 100 100 99 96 99 96 92 94 80 70 65 64
13 13 14 12 12 21 20 18 16 14 15 17 18 17 16 15 13 12 12 18 37 41 46 56 67 76 99 100 100 100 99 98 98 98 98 99 100 100 100 100 97 100 98 90 90 81 69 68 66
15 15 14 11 10 16 17 15 12 11 13 15 16 15 13 12 12 11 12 24 45 45 54 59 64 73 100 99 96 93 99 99 99 98 98 98 99 100 100 100 100 100 99 93 90 81 72 68 68
15 15 13 14 12 12 15 17 14 11 10 11 11 11 10 11 11 15 16 20 36 51 58 60 63 72 96 88 95 86 87 98 95 100 100 99 99 100 100 100 100 99 99 99 91 83 72 72 72
17 11 14 16 18 19 13 18 10 13 12 11 11 12 15 19 23 22 20 18 28 51 64 69 66 73 82 82 83 76 74 74 84 86 94 98 100 100 100 100 100 100 100 99 92 86 74 69 69
17 12 17 20 20 20 17 19 12 10 11 13 13 20 28 31 33 33 28 22 24 52 72 88 84 83 85 80 73 73 66 69 76 80 85 95 100 99 99 100 100 100 100 100 94 86 76 70 63
15 20 19 18 19 26 18 18 13 10 14 13 30 33 38 36 36 36 37 33 34 62 84 95 89 89 94 86 77 73 73 81 84 82 90 95 100 99 100 100 100 100 100 100 97 90 81 72 66
15 22 22 25 27 23 12 18 15 11 19 22 34 40 39 38 42 40 40 42 44 63 84 96 84 90 100 97 85 79 83 88 84 82 80 94 99 99 100 100 100 100 100 100 99 94 86 78 70
17 20 20 22 21 19 18 24 16 12 15 34 39 40 40 43 48 47 49 52 56 74 79 92 85 91 98 92 86 88 87 83 82 75 80 99 99 100 99 100 100 100 100 100 98 92 91 84 72
16 21 14 14 14 22 16 19 13 17 14 37 41 42 46 50 54 55 56 60 64 74 81 91 90 87 94 82 82 81 84 82 77 81 96 97 100 99 100 100 100 100 100 100 100 100 99 88 77
13 14 20 15 24 22 13 16 19 24 31 39 44 45 50 54 60 66 64 67 72 77 83 91 93 88 91 82 82 79 80 81 83 94 100 99 100 100 100 100 100 100 100 100 100 100 96 90 85
21 26 19 14 18 18 20 18 16 28 34 42 44 45 49 54 57 63 75 83 86 89 89 94 96 93 91 88 87 82 84 83 93 97 100 99 100 100 100 100 100 100 100 97 95 90 86 85 84
14 22 21 26 23 20 19 18 34 30 34 41 46 44 45 49 52 56 63 80 88 93 93 96 97 94 93 94 89 88 86 87 97 99 99 100 100 100 100 100 100 99 94 88 86 81 80 78 80

GFSSGP_925_rhum_117.txt.gz
RH
24 28 17 10 13 9 6 6 5 8 9 8 8 11 10 9 13 16 15 22 22 28 50 36 32 34 47 55 62 62 62 68 78 76 72 67 66 70 80 83 84 85 90 95 89 90 92 86 83
29 19 12 10 13 8 7 4 7 7 9 10 9 13 10 10 8 13 19 25 23 30 51 66 40 36 44 55 60 60 65 73 77 80 77 70 69 72 75 82 83 86 90 91 90 90 90 81 81
35 14 10 10 10 8 5 4 6 7 10 10 10 10 9 9 8 11 16 21 23 28 40 64 37 35 43 57 61 62 74 96 96 93 81 73 72 78 96 90 83 82 86 88 96 94 86 83 84
19 10 11 13 10 6 5 4 6 8 9 8 9 11 8 9 10 11 16 19 22 29 35 61 46 42 47 53 61 66 90 98 98 96 82 77 80 95 81 70 86 91 80 83 93 94 82 84 84
13 10 11 9 7 5 4 5 8 10 9 10 8 10 10 10 12 15 16 20 26 30 44 60 41 43 47 60 63 65 92 97 98 91 92 80 86 66 74 81 76 95 83 78 87 89 85 86 83
12 9 11 10 7 5 4 5 8 10 8 9 10 10 10 10 13 19 19 25 33 40 55 83 53 46 47 65 67 68 84 99 93 89 86 82 78 46 42 79 78 61 85 79 82 82 85 84 84
13 10 11 9 8 6 5 6 6 8 8 9 8 10 9 12 21 31 25 29 40 52 64 82 84 68 54 70 70 70 79 78 92 89 86 85 79 63 48 57 58 65 83 82 79 84 85 82 80
12 12 12 10 10 8 5 5 6 7 8 7 8 11 10 20 24 28 30 35 43 56 63 73 79 89 90 91 80 74 81 78 85 89 79 76 82 58 61 64 74 74 77 83 83 81 83 82 79
12 18 16 12 10 8 6 7 6 5 6 9 8 10 11 16 20 24 33 39 45 54 60 63 70 80 87 88 90 84 81 81 82 86 84 79 90 71 78 85 76 73 78 79 69 71 72 81 83
16 19 16 10 8 8 7 7 7 8 8 8 9 10 10 11 15 17 24 33 42 48 57 59 65 73 81 86 89 92 88 89 87 88 89 90 80 81 79 80 77 70 65 63 64 67 68 70 92
17 21 14 11 10 8 8 8 6 7 9 8 9 10 10 9 10 14 15 20 32 40 50 56 64 69 75 93 90 84 84 74 79 79 80 81 80 85 76 83 83 72 68 78 68 63 68 80 82
19 16 16 14 12 11 12 10 10 8 7 6 6 7 9 10 11 11 13 13 17 28 46 55 58 67 82 82 82 72 84 71 72 81 85 88 86 86 76 65 65 88 89 92 88 81 78 83 85
16 15 15 14 13 14 13 13 13 12 9 8 7 7 9 10 10 10 11 12 14 18 31 50 58 66 87 81 72 67 83 79 77 77 90 92 86 81 71 65 74 88 89 92 84 76 85 83 82
15 16 15 15 16 14 16 16 14 13 11 10 10 9 9 9 9 9 11 12 14 18 27 42 58 62 74 95 86 78 83 86 98 96 90 93 92 88 80 79 79 79 90 90 74 84 87 82 72
13 18 16 15 15 16 14 18 17 13 12 12 11 11 10 8 8 8 9 10 11 17 24 38 52 61 68 97 98 89 75 80 99 100 92 92 94 90 86 82 80 84 94 92 79 88 85 79 71
13 17 23 16 15 14 16 22 15 12 12 13 13 12 11 10 9 8 9 10 10 12 20 29 41 58 68 78 80 74 81 83 90 100 95 93 95 94 90 85 88 86 96 90 83 94 88 80 70
10 12 13 14 10 14 17 21 14 12 12 13 14 13 13 13 11 10 9 10 10 12 14 20 40 52 67 71 70 72 81 83 83 95 99 98 97 95 92 90 93 90 94 97 99 97 81 86 74
11 12 10 12 10 10 16 17 14 13 13 15 14 12 12 12 12 11 11 11 11 12 15 20 32 51 64 74 74 73 77 91 91 98 96 96 98 97 93 91 93 97 98 99 98 96 84 77 61
9 10 11 12 9 11 12 12 11 12 12 13 14 14 14 14 12 12 12 12 12 13 23 28 33 51 66 75 77 87 86 95 97 97 97 97 90 97 95 94 96 95 100 99 94 94 84 69 58
6 9 12 8 7 8 9 12 14 12 10 10 12 12 13 14 13 12 12 12 13 16 30 33 39 50 64 81 91 88 79 84 82 84 87 99 99 100 100 100 99 93 100 100 94 96 85 76 61
9 8 9 9 8 8 10 11 10 9 9 8 8 8 10 11 12 10 10 11 13 24 32 38 41 48 64 89 90 75 76 87 89 93 91 93 100 97 98 99 100 100 99 100 98 95 81 82 67
13 8 9 8 10 12 10 14 9 8 8 8 8 9 9 8 8 9 10 13 15 21 33 40 41 47 77 92 79 67 72 82 81 77 86 92 94 99 98 99 100 97 100 100 96 94 83 77 71
9 8 11 10 12 14 11 10 8 7 9 9 9 8 9 13 16 18 17 16 16 17 35 47 45 48 79 81 68 69 60 66 64 64 69 86 96 100 100 100 100 99 100 100 99 96 86 79 68
13 11 12 14 14 23 15 12 9 8 9 10 12 13 17 23 24 22 22 28 22 36 48 61 54 51 68 73 67 67 61 57 56 62 66 79 85 90 99 99 100 100 98 100 99 92 91 82 71
16 18 20 28 26 25 12 12 11 8 7 8 17 24 27 28 29 28 28 30 26 40 59 73 73 60 74 76 70 65 63 60 61 63 66 74 82 97 99 99 100 100 98 100 100 100 96 85 75
18 18 22 30 26 19 9 12 9 7 7 12 20 26 29 30 34 35 37 39 41 49 60 79 80 80 90 81 71 67 67 66 66 68 63 70 79 91 100 100 100 100 100 100 100 100 100 91 85
17 19 13 20 15 17 11 9 9 8 9 22 28 28 32 35 38 41 46 50 54 59 66 77 83 90 94 91 79 71 70 67 68 68 70 73 81 96 100 100 100 100 100 100 100 100 100 100 93
16 12 20 19 28 23 12 12 12 12 14 22 26 31 37 42 48 53 55 60 64 68 76 83 87 90 90 88 77 72 71 69 70 74 81 86 99 99 98 100 100 100 100 100 100 100 100 100 98
17 17 12 15 18 22 18 13 9 10 12 17 24 32 38 43 46 54 65 72 83 82 80 85 89 92 90 84 76 68 66 71 75 78 84 93 98 99 99 99 99 100 100 100 100 100 100 100 99
36 14 13 19 21 15 14 14 16 12 17 19 35 34 39 42 45 49 59 70 81 92 89 88 93 98 92 84 81 74 71 73 78 82 86 98 99 100 99 99 100 100 100 100 100 100 100 100 100